Regional Weather Roundup
Issued by NWS

Home | Current Version | Previous Version | Graphics & Text | Print | Product List | Glossary On
Versions: 1 2 3 4 5 6 7 8 9 10 11 12 13 14 15 16 17 18 19 20 21 22 23 24 25 26 27 28 29 30 31 32 33 34 35 36 37 38 39 40 41 42 43 44 45 46 47 48 49 50
000
ASUS45 KABQ 282201
RWRNM
WEATHER ROUNDUP FOR NEW MEXICO
NATIONAL WEATHER SERVICE ALBUQUERQUE NM
400 PM MDT MON JUL 28 2014

NOTE: "FAIR" MEANS FEW OR NO CLOUDS BELOW 12,000 FEET AGL WITH NO
       SIGNIFICANT WEATHER OR OBSTRUCTIONS TO VISION.

      THIS PRODUCT IS RELEASED AS TWO VERSIONS.  ONE VERSION NEAR
      THE TOP OF THE HOUR CONTAINING PRELIMINARY DATA FROM ALBUQUERQUE
      AND OTHER STATIONS.  A FINAL VERSION WITH ADDITIONAL DATA IS
      ISSUED ABOUT 10 MINUTES AFTER THE HOUR.

NMZ501-503-504-510>518-282300-
NORTHWEST PLATEAU/NORTHCENTRAL MOUNTAINS

CITY           SKY/WX    TMP DP  RH WIND       PRES   REMARKS
FARMINGTON     PTSUNNY   87  50  27 SW8G20    30.26F
LOS ALAMOS     MOSUNNY   75  52  44 S13G18    30.45R
SANTA FE       MOSUNNY   78  52  40 S10       30.37F
TAOS           PTSUNNY   72  48  43 S14       30.44S
ANGEL FIRE     MOCLDY    64  52  64 S16       30.55F

$$
NMZ402-403-502-505>509-282300-
WESTCENTRAL MOUNTAINS/SOUTHWEST MOUNTAINS

CITY           SKY/WX    TMP DP  RH WIND       PRES   REMARKS
GALLUP         PTSUNNY   75  57  53 NE12      30.38F

$$
NMZ407-409-411-412-282300-
SOUTHERN DESERTS

CITY           SKY/WX    TMP DP  RH WIND       PRES   REMARKS
LORDSBURG      MOCLDY    88  54  31 SW10G16   30.20F
DEMING         MOSUNNY   88  54  31 VRB3      30.20F
LAS CRUCES     MOSUNNY   90  55  29 E12       30.23F
HOLLOMAN AFB   MOSUNNY   87  59  39 NW8       30.21F
T OR C         MOSUNNY   86  52  30 VRB7      30.24F

$$
NMZ519>523-282300-
CENTRAL VALLEYS/CENTRAL HIGHLANDS

CITY           SKY/WX    TMP DP  RH WIND       PRES   REMARKS
ALBUQUERQUE    MOSUNNY   85  50  29 SW13      30.30F
DOUBLE EAGLE   PTSUNNY   84  52  32 S17       30.34F
CLINES CORNERS PTSUNNY   75  50  41 S15G25    30.43F
BELEN          FAIR      84  51  31 S14G21    30.29F
SOCORRO        FAIR      88  50  26 S12G24    30.25F

$$
NMZ524>526-539-540-282300-
SOUTHCENTRAL MOUNTAINS

CITY           SKY/WX    TMP DP  RH WIND       PRES   REMARKS
RUIDOSO        NOT AVBL

$$
NMZ527>531-282300-
NORTHEAST HIGHLANDS/NORTHEAST PLAINS

CITY           SKY/WX    TMP DP  RH WIND       PRES   REMARKS
LAS VEGAS      MOSUNNY   73  55  53 S10G24    30.43F
RATON          CLOUDY    70  60  70 S12       30.40F
CLAYTON        CLOUDY    69  59  70 SE14      30.36F

$$
NMZ532>537-282300-
EASTCENTRAL PLAINS

CITY           SKY/WX    TMP DP  RH WIND       PRES   REMARKS
TUCUMCARI      MOSUNNY   87  61  41 SE9G21    30.25F
CANNON AFB     PTSUNNY   81  62  52 E14       30.29F
CLOVIS AIRPORT MOSUNNY   81  61  50 E14       30.32

$$
NMZ028-029-538-282300-
SOUTHEAST PLAINS

CITY           SKY/WX    TMP DP  RH WIND       PRES   REMARKS
ROSWELL        PTSUNNY   91  56  30 SE12      30.20F
ARTESIA        PTSUNNY   91  55  29 E10G16    30.18F
CARLSBAD       MOSUNNY   96  52  22 E13       30.14F
HOBBS          PTSUNNY   91  57  31 NE14      30.23F


$$



USA.gov is the U.S. government's official web portal to all federal, state and local government web resources and services.